| time (UTC) | temp F | wind direction | speed MPH | gust MPH | rain 1hr in | rain 24hr in | rain mn in | humidity % | barometer mb |
| 20260904190104 | 57 | 0 | 0.0 | 0.0 | 0.00 | 0.00 | 0.00 | 72 | 1018.7 |
| 20260904184610 | 57 | 0 | 0.0 | 0.0 | 0.00 | 0.00 | 0.00 | 71 | 1018.9 |
| 20260904183101 | 57 | 0 | 0.0 | 1.0 | 0.00 | 0.00 | 0.00 | 69 | 1019.2 |
| 20260904181601 | 58 | 43 | 0.0 | 2.0 | 0.00 | 0.00 | 0.00 | 67 | 1019.3 |
| 20260904180103 | 58 | 0 | 0.0 | 3.0 | 0.00 | 0.00 | 0.00 | 65 | 1019.6 |
| 20260904174606 | 57 | 340 | 0.0 | 1.0 | 0.00 | 0.00 | 0.00 | 68 | 1019.7 |
| 20260904173109 | 58 | 0 | 0.0 | 0.0 | 0.00 | 0.00 | 0.00 | 68 | 1019.9 |
| 20260904171601 | 58 | 319 | 0.0 | 4.0 | 0.00 | 0.00 | 0.00 | 66 | 1019.9 |
| 20260904170059 | 58 | 0 | 0.0 | 3.0 | 0.00 | 0.00 | 0.00 | 66 | 1020.1 |
| 20260904164603 | 57 | 0 | 0.0 | 1.0 | 0.00 | 0.02 | 0.00 | 68 | 1020.2 |
| 20260904163058 | 58 | 0 | 0.0 | 2.0 | 0.00 | 0.02 | 0.00 | 67 | 1020.3 |
| 20260904161601 | 58 | 0 | 0.0 | 2.0 | 0.00 | 0.02 | 0.00 | 66 | 1020.4 |
| 20260904160103 | 58 | 0 | 0.0 | 2.0 | 0.00 | 0.02 | 0.00 | 66 | 1020.4 |
| 20260904154620 | 58 | 257 | 0.0 | 4.0 | 0.00 | 0.03 | 0.02 | 66 | 1020.6 |
| 20260904153103 | 58 | 0 | 0.0 | 2.0 | 0.00 | 0.03 | 0.02 | 66 | 1020.6 |
| 20260904151611 | 58 | 0 | 1.0 | 4.0 | 0.00 | 0.03 | 0.02 | 65 | 1020.7 |
| 20260904150106 | 58 | 0 | 0.0 | 1.0 | 0.00 | 0.03 | 0.02 | 67 | 1021.0 |
| 20260904144604 | 59 | 0 | 0.0 | 4.0 | 0.00 | 0.03 | 0.02 | 66 | 1021.1 |
| 20260904143101 | 59 | 262 | 1.0 | 3.0 | 0.00 | 0.03 | 0.02 | 67 | 1021.3 |
| 20260904141623 | 59 | 253 | 0.0 | 2.0 | 0.00 | 0.03 | 0.02 | 67 | 1021.3 |
| 20260904140109 | 58 | 0 | 0.0 | 2.0 | 0.00 | 0.03 | 0.02 | 68 | 1021.3 |
| 20260904134611 | 59 | 258 | 0.0 | 3.0 | 0.00 | 0.03 | 0.02 | 67 | 1021.3 |
| 20260904133116 | 59 | 0 | 0.0 | 2.0 | 0.00 | 0.03 | 0.02 | 66 | 1021.3 |
| 20260904131615 | 59 | 255 | 0.0 | 5.0 | 0.00 | 0.03 | 0.02 | 64 | 1021.3 |
| 20260904130104 | 59 | 0 | 0.0 | 3.0 | 0.00 | 0.03 | 0.02 | 65 | 1021.4 |
| 20260904124600 | 59 | 265 | 0.0 | 4.0 | 0.00 | 0.03 | 0.02 | 64 | 1021.4 |
| 20260904123123 | 59 | 263 | 1.0 | 7.0 | 0.00 | 0.03 | 0.02 | 66 | 1021.6 |
| 20260904121558 | 59 | 254 | 0.0 | 4.0 | 0.00 | 0.03 | 0.02 | 67 | 1021.4 |
| 20260904114602 | 59 | 260 | 0.0 | 2.0 | 0.00 | 0.03 | 0.02 | 68 | 1021.4 |
| 20260904113108 | 59 | 0 | 0.0 | 2.0 | 0.00 | 0.03 | 0.02 | 69 | 1021.2 |
| 20260904111558 | 59 | 0 | 0.0 | 0.0 | 0.00 | 0.03 | 0.02 | 72 | 1021.0 |
| 20260904110100 | 59 | 329 | 0.0 | 1.0 | 0.00 | 0.03 | 0.02 | 72 | 1020.9 |
| 20260904104601 | 59 | 254 | 0.0 | 1.0 | 0.00 | 0.03 | 0.02 | 72 | 1020.8 |
| 20260904103106 | 59 | 0 | 0.0 | 1.0 | 0.00 | 0.03 | 0.02 | 72 | 1020.7 |
| 20260904101603 | 59 | 0 | 0.0 | 4.0 | 0.00 | 0.03 | 0.02 | 71 | 1020.6 |
| 20260904100108 | 59 | 0 | 0.0 | 4.0 | 0.00 | 0.03 | 0.02 | 69 | 1020.5 |
| 20260904094602 | 60 | 259 | 0.0 | 4.0 | 0.00 | 0.03 | 0.02 | 68 | 1020.4 |
| 20260904093107 | 60 | 261 | 1.0 | 4.0 | 0.00 | 0.03 | 0.02 | 69 | 1020.3 |
| 20260904091601 | 61 | 245 | 1.0 | 4.0 | 0.00 | 0.03 | 0.02 | 68 | 1020.0 |
| 20260904090104 | 61 | 222 | 1.0 | 5.0 | 0.00 | 0.03 | 0.02 | 68 | 1019.8 |
| 20260904084603 | 62 | 275 | 1.0 | 4.0 | 0.00 | 0.03 | 0.02 | 64 | 1019.7 |
| 20260904083104 | 62 | 256 | 1.0 | 4.0 | 0.00 | 0.03 | 0.02 | 63 | 1019.5 |
| 20260904081602 | 62 | 207 | 1.0 | 5.0 | 0.00 | 0.03 | 0.02 | 63 | 1019.5 |
| 20260904080107 | 62 | 240 | 2.0 | 8.0 | 0.00 | 0.03 | 0.02 | 59 | 1019.3 |
| 20260904074604 | 63 | 82 | 2.0 | 7.0 | 0.00 | 0.03 | 0.02 | 58 | 1019.3 |
| 20260904073104 | 63 | 254 | 2.0 | 7.0 | 0.00 | 0.03 | 0.02 | 59 | 1019.0 |
| 20260904071601 | 63 | 251 | 3.0 | 8.0 | 0.00 | 0.03 | 0.02 | 57 | 1018.9 |
| 20260904064620 | 63 | 171 | 3.0 | 6.0 | 0.00 | 0.03 | 0.02 | 59 | 1018.6 |
| 20260904063102 | 63 | 227 | 2.0 | 9.0 | 0.00 | 0.03 | 0.02 | 59 | 1018.5 |
| 20260904061600 | 63 | 254 | 2.0 | 9.0 | 0.00 | 0.03 | 0.02 | 59 | 1018.5 |
| 20260904054603 | 63 | 262 | 1.0 | 9.0 | 0.00 | 0.03 | 0.02 | 63 | 1018.4 |
| 20260904053110 | 63 | 149 | 1.0 | 8.0 | 0.00 | 0.03 | 0.02 | 64 | 1018.4 |
| 20260904051609 | 65 | 263 | 1.0 | 10.0 | 0.00 | 0.03 | 0.02 | 64 | 1018.4 |
| 20260904050146 | 63 | 238 | 1.0 | 7.0 | 0.00 | 0.03 | 0.02 | 68 | 1018.5 |
| 20260904044602 | 63 | 229 | 3.0 | 10.0 | 0.00 | 0.05 | 0.02 | 71 | 1018.8 |
| 20260904043104 | 62 | 219 | 3.0 | 11.0 | 0.00 | 0.05 | 0.02 | 70 | 1018.6 |
| 20260904041612 | 64 | 221 | 2.0 | 12.0 | 0.00 | 0.05 | 0.02 | 68 | 1018.5 |
| 20260904040105 | 64 | 350 | 2.0 | 7.0 | 0.00 | 0.05 | 0.02 | 71 | 1018.6 |
| 20260904034614 | 63 | 242 | 2.0 | 11.0 | 0.00 | 0.06 | 0.02 | 72 | 1018.5 |
| 20260904033105 | 63 | 240 | 5.0 | 12.0 | 0.00 | 0.06 | 0.02 | 69 | 1018.6 |
| 20260904031604 | 65 | 0 | 3.0 | 12.0 | 0.00 | 0.06 | 0.02 | 60 | 1018.3 |
| 20260904030103 | 65 | 216 | 4.0 | 9.0 | 0.00 | 0.06 | 0.02 | 52 | 1018.1 |
| 20260904024607 | 65 | 290 | 4.0 | 10.0 | 0.00 | 0.06 | 0.02 | 55 | 1017.9 |
| 20260904023100 | 64 | 248 | 6.0 | 10.0 | 0.00 | 0.06 | 0.02 | 55 | 1017.9 |
| 20260904021559 | 63 | 265 | 2.0 | 12.0 | 0.00 | 0.06 | 0.02 | 59 | 1018.0 |
| 20260904014634 | 64 | 266 | 4.0 | 12.0 | 0.00 | 0.06 | 0.02 | 56 | 1017.9 |
| 20260904013103 | 63 | 292 | 3.0 | 13.0 | 0.00 | 0.06 | 0.02 | 56 | 1017.9 |
| 20260904011609 | 62 | 259 | 4.0 | 12.0 | 0.00 | 0.06 | 0.02 | 60 | 1017.6 |
| 20260904004604 | 62 | 248 | 4.0 | 10.0 | 0.00 | 0.06 | 0.02 | 64 | 1017.1 |
| 20260904003103 | 62 | 262 | 2.0 | 10.0 | 0.00 | 0.06 | 0.02 | 65 | 1016.5 |
| 20260904001559 | 61 | 255 | 4.0 | 10.0 | 0.00 | 0.06 | 0.02 | 68 | 1016.2 |
| 20260904000100 | 60 | 229 | 2.0 | 10.0 | 0.00 | 0.06 | 0.02 | 73 | 1016.0 |
| 20260903234601 | 59 | 250 | 1.0 | 5.0 | 0.00 | 0.06 | 0.02 | 78 | 1015.7 |
| 20260903233101 | 59 | 266 | 3.0 | 11.0 | 0.00 | 0.06 | 0.02 | 77 | 1015.9 |
| 20260903231612 | 59 | 242 | 4.0 | 9.0 | 0.00 | 0.06 | 0.02 | 71 | 1015.7 |
| 20260903230114 | 58 | 265 | 2.0 | 6.0 | 0.00 | 0.06 | 0.02 | 78 | 1015.2 |
| 20260903224603 | 58 | 245 | 1.0 | 6.0 | 0.00 | 0.07 | 0.02 | 77 | 1014.9 |
| 20260903223113 | 59 | 267 | 3.0 | 11.0 | 0.00 | 0.07 | 0.02 | 75 | 1014.8 |
| 20260903221604 | 59 | 239 | 3.0 | 8.0 | 0.00 | 0.07 | 0.02 | 74 | 1014.7 |
| 20260903220108 | 59 | 253 | 5.0 | 12.0 | 0.00 | 0.07 | 0.02 | 66 | 1014.6 |
| 20260903214559 | 59 | 291 | 4.0 | 11.0 | 0.00 | 0.07 | 0.02 | 68 | 1014.3 |
| 20260903213103 | 59 | 266 | 5.0 | 13.0 | 0.00 | 0.07 | 0.02 | 70 | 1014.1 |
| 20260903211616 | 59 | 225 | 3.0 | 13.0 | 0.00 | 0.07 | 0.02 | 73 | 1013.9 |
| 20260903204605 | 59 | 241 | 3.0 | 14.0 | 0.00 | 0.07 | 0.02 | 83 | 1013.6 |
| 20260903203105 | 58 | 276 | 4.0 | 11.0 | 0.00 | 0.07 | 0.02 | 85 | 1013.4 |
| 20260903201606 | 58 | 270 | 4.0 | 12.0 | 0.00 | 0.07 | 0.02 | 86 | 1013.2 |
| 20260903200112 | 58 | 278 | 5.0 | 15.0 | 0.00 | 0.07 | 0.02 | 86 | 1013.3 |
| 20260903194602 | 58 | 257 | 3.0 | 9.0 | 0.00 | 0.07 | 0.02 | 85 | 1013.0 |
| 20260903193105 | 58 | 245 | 3.0 | 18.0 | 0.00 | 0.07 | 0.02 | 81 | 1013.1 |
| 20260903191609 | 61 | 65 | 6.0 | 16.0 | 0.00 | 0.07 | 0.02 | 74 | 1013.3 |